Regional Weather Roundup
Issued by NWS

Home | Current Version | Previous Version | Text Only | Print | Product List | Glossary Off
Versions: 1 2 3 4 5 6 7 8 9 10 11 12 13 14 15 16 17 18 19 20 21 22 23 24 25 26 27 28 29 30 31 32 33 34 35 36 37 38 39 40 41 42 43 44 45 46 47 48 49 50

934
ASUS45 KCYS 101110
RWRWY

WYOMING REGIONAL WEATHER ROUNDUP
NATIONAL WEATHER SERVICE CHEYENNE WY
400 AM MST SUN DEC 10 2017

NOTE:  "FAIR" INDICATES FEW OR NO CLOUDS BELOW 12,000 FEET
WITH NO SIGNIFICANT WEATHER AND/OR OBSTRUCTIONS TO VISIBILITY.

WYZ001-101200-
YELLOWSTONE NATIONAL PARK

CITY           SKY/WX    TMP DP  RH WIND       PRES   REMARKS
LK YELLOWSTONE   N/A      1  -2  87 CALM      30.61F
W YELLOWSTONE  NOT AVBL

$$
WYZ002>013-054>058-071-098>099-101200-
NORTHERN WYOMING

CITY           SKY/WX    TMP DP  RH WIND       PRES   REMARKS
JACKSON        FAIR       7   3  85 N7        30.65S FOG     WCI  -5
CODY           FAIR      28  12  51 VRB3      30.39F
GREYBULL       FAIR       9   5  84 CALM      30.44F
WORLAND        FAIR      14  10  84 SW7       30.43F WCI   4
SHERIDAN       FAIR      25  11  55 CALM      30.32F
BUFFALO        FAIR      36  -1  21 CALM      30.34F
GILLETTE       FAIR      33  12  41 W15       30.31F WCI  23
HULETT         FAIR      36  10  35 SW12      30.30S WCI  27
NEWCASTLE      FAIR      32   9  37 N15       30.32S WCI  22

$$
WYZ014>020-022>026-101>103-101200-
CENTRAL WYOMING

CITY           SKY/WX    TMP DP  RH WIND       PRES   REMARKS
BIG PINEY      FAIR      23   2  40 N10       30.52S WCI  12
PINEDALE       FAIR      23   3  42 N8        30.50S WCI  14
DUBOIS         FAIR      37  -8  14 W23G30    30.46F WCI  26
LANDER         FAIR      23  11  60 CALM      30.43F
RIVERTON       FAIR      19  12  74 CALM      30.45S
CASPER         FAIR      31  14  49 SW21      30.41F WCI  18
DOUGLAS        FAIR      22  15  75 NW9       30.39F WCI  12

$$
WYZ021-027>030-104>119-101200-
SOUTHERN WYOMING

CITY           SKY/WX    TMP DP  RH WIND       PRES   REMARKS
EVANSTON       FAIR      24   6  46 S5        30.57R WCI  18
FORT BRIDGER   FAIR      26   1  33 W12       30.58  WCI  16
ROCK SPRINGS   FAIR      27   5  39 W10       30.52S WCI  17
DIXON          FAIR      13   6  73 E3        30.58S
RAWLINS        FAIR      20   8  60 CALM      30.50F
SARATOGA       FAIR      18   7  62 NE3       30.52S
LARAMIE        FAIR      21   3  45 S5        30.44F WCI  15
CHEYENNE       FAIR      37   0  21 NW15G21   30.37F WCI  28
TORRINGTON     FAIR      32  11  41 NW13      30.36S WCI  22
PINE BLUFFS    FAIR      27   1  33 MISG      30.37F

$$




USA.gov is the U.S. government's official web portal to all federal, state and local government web resources and services.